THOR ABLESTAR DEB, 235

Orbit data source: Space-Track

THOR ABLESTAR DEB, 235 is space debris in LEO originally from a launch on Thu, 29 Jun 1961 UTC launched from the Air Force Eastern Test Range (AFETR). Debris objects in space refer to the collection of defunct objects orbiting the Earth. Examples of debris include non-operational satellites, rocket bodies, and fragments generated from explosions, collisions, or faulty payload assembly.

Loading next visibility...
Identifier
235, 1961-015BT
Orbit
LEO
Last TLE update
15 hours ago
Origin
Manufacturer
Unknown
Mission
Spacecraft
Bus & Motor
Unknown
Mass
Unknown
Launch date (UTC)
1961-06-29 (64 years ago)
Launch vehicle
Unknown
Launch site
Air Force Eastern Test Range (AFETR)
Object type
Payload
Rocket body
Debris
Shape & HBR
Unknown
Radar Cross Section
Small (<0.1 m²)

Expand to show TLE details & history

TLE from 15 hours ago
0 THOR ABLESTAR DEB
1 00235U 61015BT  25128.58592680  .00000619  00000-0  34085-3 0  9993
2 00235  66.9547 206.6633 0168247 279.2365  78.9730 14.10913295264244
Epoch: 2025-05-08T14:03Z
Definitive object data (Epoch: 2025-05-08T14:03:44.075Z)
Latitude
-0.00005°
Longitude
129.07533°
Altitude
837.056 km
Speed
7.446 km/s
True Right ascension
13h 46m 39s
True Declination
0° 00' 00"
Sunlit
Object was in full shadow at TLE epoch
Visualization TLE readout
Latitude
23.68963°
Longitude
138.16211°
Altitude
892.213 km
Speed
7.391 km/s
Apparent Right ascension
16h 11m 11s
Apparent Declination
-29° 14' 11"
Sunlit
Object is in full shadow
Visualization observer readout
Local Sidereal Time
13:38:25
Azimuth
146.483° SSE
Elevation
12.275°
Doppler factor
1
Orbital elements
Apogee altitude
976.296 km
Perigee altitude
732.919 km
Semi-major axis
7,232.745 km
Eccentricity
0.0168247
Inclination
66.9547°
RAAN
206.6633°
Arg. of periapsis
279.2365°
True anomaly
80.87267°
Mean anomaly
78.973°
Eccentric anomaly
79.92211°
Mean motion
3.52849 °/min
BSTAR
0.00034085
Orbital period
102.03 mins
Loading maneuver chart data...
Loading SW <> Apogee altitude chart data...

THOR ABLESTAR DEB Visibility forecast

Observer location: undefined°, undefined°

Span
Click to sort rows by Start time (UTC) header in descending order
Start Az.
Max El. time (UTC)
Max El. Az.
Max El.
End time (UTC)
End Az.
8 mins2025-05-09 05:29:44.232Z146.625° SSE2025-05-09 05:33:44.232Z100.096° ESE19.8°2025-05-09 05:37:44.232Z58.607° ENE
10 mins2025-05-09 07:13:44.232Z227.029° WSW2025-05-09 07:17:44.232Z300.814° NW41.297°2025-05-09 07:23:44.232Z22.391° NNE
4 mins2025-05-09 09:02:44.232Z310.196° NW2025-05-09 09:03:44.232Z320.538° NNW13.366°2025-05-09 09:06:44.232Z350.129° N
7 mins2025-05-09 14:25:44.232Z6.487° NNE2025-05-09 14:28:44.232Z41.362° NE21.071°2025-05-09 14:32:44.232Z87.637° E
10 mins2025-05-09 16:09:44.232Z326.19° NNW2025-05-09 16:14:44.232Z227.407° WSW43.808°2025-05-09 16:19:44.232Z161.545° S
7 mins2025-05-10 05:19:44.232Z140.297° SSE2025-05-10 05:22:44.232Z102.066° ESE20.871°2025-05-10 05:26:44.232Z58.798° ENE
|